Location: Unspecified
(22.6800°N, 112.2000°E)
Time: 10:56:03
(UTC+08:00)

Transit 2A - Pass Details

Date: 04 August 2021
Orbit: 595 x 963 km, 66.7° (Epoch: 16 September)

Event Time Altitude Azimuth Distance (km) Brightness Sun altitude
Rises 17:03:59 0° 309° (NW) 3,473 10.3 27.6°
Reaches altitude 10° 17:07:35 10° 286° (WNW) 2,594 10.5 26.7°
Maximum altitude 17:10:47 15° 254° (WSW) 2,306 9.9 26.0°
Drops below altitude 10° 17:14:04 10° 222° (SW) 2,666 9.4 25.3°
Sets 17:17:54 0° 200° (SSW) 3,630 9.6 24.4°
